VK4ZU-13 Weather Reports


Display with metric or nautical units.
time (UTC)temp
F
wind
direction
speed
MPH
gust
MPH
rain 1hr
in
rain 24hr
in
rain mn
in
humidity
%
barometer
mb
20260505014730 80 28 2.0 5.0 0.00 0.00 0.00 65 1016.5
20260505014620 80 346 2.0 5.0 0.00 0.00 0.00 62 1016.4
20260505014515 80 0 2.0 5.0 0.00 0.00 0.00 64 1016.4
20260505014417 80 28 2.0 5.0 0.00 0.00 0.00 64 1016.4
20260505014307 80 355 2.0 5.0 0.00 0.00 0.00 66 1016.4
20260505014205 80 355 2.0 5.0 0.00 0.00 0.00 64 1016.4
20260505014101 80 69 2.0 5.0 0.00 0.00 0.00 64 1016.4
20260505014002 80 16 2.0 4.0 0.00 0.00 0.00 64 1016.4
20260505013853 80 324 2.0 4.0 0.00 0.00 0.00 65 1016.5
20260505013754 80 16 2.0 4.0 0.00 0.00 0.00 67 1016.4
20260505013555 80 66 1.0 4.0 0.00 0.00 0.00 67 1016.6
20260505013438 80 336 2.0 4.0 0.00 0.00 0.00 66 1016.7
20260505013325 80 341 1.0 4.0 0.00 0.00 0.00 66 1016.7
20260505013215 80 9 1.0 4.0 0.00 0.00 0.00 65 1016.7
20260505013105 80 0 1.0 4.0 0.00 0.00 0.00 64 1016.8
20260505013002 80 38 1.0 4.0 0.00 0.00 0.00 66 1016.8
20260505012903 80 5 1.0 4.0 0.00 0.00 0.00 65 1016.9
20260505012753 80 302 1.0 3.0 0.00 0.00 0.00 67 1016.8
20260505012643 80 265 1.0 3.0 0.00 0.00 0.00 66 1016.8
20260505012545 79 248 1.0 3.0 0.00 0.00 0.00 65 1016.9
20260505012425 79 31 1.0 3.0 0.00 0.00 0.00 67 1017.0
20260505012320 79 351 1.0 3.0 0.00 0.00 0.00 66 1017.0
20260505012219 79 123 1.0 3.0 0.00 0.00 0.00 66 1016.9
20260505012118 80 123 1.0 3.0 0.00 0.00 0.00 66 1017.0
20260505012015 80 71 1.0 3.0 0.00 0.00 0.00 66 1017.0
20260505011911 79 71 1.0 3.0 0.00 0.00 0.00 67 1017.1
20260505011810 79 71 1.0 3.0 0.00 0.00 0.00 64 1017.2
20260505011707 79 40 1.0 3.0 0.00 0.00 0.00 68 1017.2
20260505011606 79 348 1.0 3.0 0.00 0.00 0.00 67 1017.3
20260505011510 79 69 1.0 4.0 0.00 0.00 0.00 65 1017.3
20260505011356 79 337 1.0 4.0 0.00 0.00 0.00 66 1017.3
20260505011254 79 337 1.0 4.0 0.00 0.00 0.00 67 1017.3
20260505011154 79 47 1.0 4.0 0.00 0.00 0.00 65 1017.4
20260505011043 79 318 0.0 4.0 0.00 0.00 0.00 68 1017.4
20260505010943 79 5 0.0 4.0 0.00 0.00 0.00 68 1017.3
20260505010838 79 5 0.0 4.0 0.00 0.00 0.00 68 1017.4
20260505010739 79 5 1.0 4.0 0.00 0.00 0.00 67 1017.4
20260505010525 79 127 1.0 4.0 0.00 0.00 0.00 67 1017.5
20260505010410 78 127 1.0 4.0 0.00 0.00 0.00 68 1017.4
20260505010258 78 246 1.0 4.0 0.00 0.00 0.00 67 1017.6
20260505010148 78 246 1.0 4.0 0.00 0.00 0.00 67 1017.6
20260505010037 78 246 1.0 4.0 0.00 0.00 0.00 68 1017.6
20260505005938 78 246 1.0 4.0 0.00 0.00 0.00 67 1017.6
20260505005835 78 246 1.0 4.0 0.00 0.00 0.00 67 1017.6
20260505005725 78 261 1.0 4.0 0.00 0.00 0.00 68 1017.6
20260505005615 78 81 1.0 2.0 0.00 0.00 0.00 67 1017.6
20260505005510 78 93 1.0 4.0 0.00 0.00 0.00 70 1017.5
20260505005402 77 93 2.0 7.0 0.00 0.00 0.00 68 1017.6
20260505005257 77 317 2.0 7.0 0.00 0.00 0.00 69 1017.6
20260505005155 77 257 2.0 7.0 0.00 0.00 0.00 67 1017.6
20260505005046 77 257 2.0 7.0 0.00 0.00 0.00 69 1017.4
20260505004938 77 257 2.0 7.0 0.00 0.00 0.00 68 1017.6
20260505004826 78 257 2.0 7.0 0.00 0.00 0.00 68 1017.5
20260505004721 78 257 2.0 7.0 0.00 0.00 0.00 68 1017.6
20260505004606 78 255 2.0 7.0 0.00 0.00 0.00 70 1017.6
20260505004458 78 271 2.0 7.0 0.00 0.00 0.00 70 1017.5
20260505004351 77 292 3.0 6.0 0.00 0.00 0.00 69 1017.6
20260505004254 78 301 2.0 6.0 0.00 0.00 0.00 69 1017.6
20260505004144 78 258 2.0 6.0 0.00 0.00 0.00 69 1017.6
20260505004034 78 257 2.0 6.0 0.00 0.00 0.00 69 1017.7
20260505003933 78 238 2.0 6.0 0.00 0.00 0.00 69 1017.7
20260505003825 77 251 2.0 6.0 0.00 0.00 0.00 71 1017.7
20260505003719 77 240 2.0 6.0 0.00 0.00 0.00 71 1017.7
20260505003509 77 257 2.0 6.0 0.00 0.00 0.00 72 1017.9
20260505003402 77 287 2.0 6.0 0.00 0.00 0.00 70 1017.8
20260505003249 78 250 2.0 6.0 0.00 0.00 0.00 70 1017.9
20260505003145 78 250 2.0 6.0 0.00 0.00 0.00 69 1018.0
20260505003042 78 207 2.0 6.0 0.00 0.00 0.00 68 1017.9
20260505002955 78 173 2.0 7.0 0.00 0.00 0.00 68 1017.9
20260505002921 78 140 2.0 7.0 0.00 0.00 0.00 71 1017.9
20260505002740 78 186 2.0 7.0 0.00 0.00 0.00 72 1017.9
20260505002630 78 200 2.0 7.0 0.00 0.00 0.00 71 1017.9
20260505002519 78 138 2.0 7.0 0.00 0.00 0.00 72 1017.9
20260505002416 77 335 2.0 7.0 0.00 0.00 0.00 71 1017.9
20260505002303 78 191 2.0 7.0 0.00 0.00 0.00 69 1017.9
20260505002219 78 159 2.0 7.0 0.00 0.00 0.00 72 1017.9
20260505002051 78 136 2.0 7.0 0.00 0.00 0.00 70 1017.9
20260505001949 78 126 2.0 7.0 0.00 0.00 0.00 72 1017.9
20260505001858 78 108 2.0 5.0 0.00 0.00 0.00 70 1017.9
20260505001741 78 123 1.0 3.0 0.00 0.00 0.00 72 1017.9
20260505001636 77 149 2.0 3.0 0.00 0.00 0.00 70 1017.9
20260505001526 77 98 2.0 4.0 0.00 0.00 0.00 73 1017.9
20260505001425 77 111 2.0 4.0 0.00 0.00 0.00 72 1018.0
20260505001332 77 181 2.0 4.0 0.00 0.00 0.00 73 1018.0
20260505001223 77 169 2.0 4.0 0.00 0.00 0.00 72 1018.0
20260505001123 77 178 1.0 4.0 0.00 0.00 0.00 72 1018.1
20260505001016 77 121 1.0 4.0 0.00 0.00 0.00 73 1018.1
20260505000906 77 161 1.0 4.0 0.00 0.00 0.00 72 1018.2
20260505000756 76 241 2.0 6.0 0.00 0.00 0.00 73 1018.2
20260505000647 76 209 2.0 8.0 0.00 0.00 0.00 75 1018.2
20260505000537 76 153 2.0 8.0 0.00 0.00 0.00 74 1018.1
20260505000439 76 258 2.0 8.0 0.00 0.00 0.00 76 1018.2
20260505000325 76 259 2.0 8.0 0.00 0.00 0.00 78 1018.1
20260505000218 75 266 2.0 8.0 0.00 0.00 0.00 79 1018.1
20260505000113 74 265 2.0 8.0 0.00 0.00 0.00 77 1018.1
20260505000014 74 257 3.0 8.0 0.00 0.00 0.00 77 1018.1
20260504235905 74 257 3.0 8.0 0.00 0.00 0.00 77 1018.1
20260504235802 74 259 3.0 8.0 0.00 0.00 0.00 77 1018.1
20260504235704 74 232 2.0 7.0 0.00 0.00 0.00 77 1018.2
20260504235559 74 221 2.0 5.0 0.00 0.00 0.00 77 1018.1
20260504235458 74 232 1.0 4.0 0.00 0.00 0.00 77 1018.1
20260504235407 74 262 1.0 4.0 0.00 0.00 0.00 77 1018.1
20260504235301 75 153 1.0 4.0 0.00 0.00 0.00 77 1018.1
20260504235143 75 174 2.0 4.0 0.00 0.00 0.00 77 1018.0
20260504235035 75 212 2.0 6.0 0.00 0.00 0.00 77 1018.1
20260504234926 75 211 2.0 6.0 0.00 0.00 0.00 78 1017.9
20260504234818 75 211 2.0 6.0 0.00 0.00 0.00 78 1017.9
20260504234708 75 211 2.0 6.0 0.00 0.00 0.00 77 1017.9
20260504234602 75 211 2.0 6.0 0.00 0.00 0.00 76 1018.0
20260504234448 75 211 2.0 6.0 0.00 0.00 0.00 78 1017.9
20260504234348 75 211 2.0 6.0 0.00 0.00 0.00 80 1017.9
20260504234246 74 222 2.0 6.0 0.00 0.00 0.00 78 1017.9
20260504234142 75 294 2.0 6.0 0.00 0.00 0.00 77 1017.9
20260504234034 75 257 2.0 5.0 0.00 0.00 0.00 76 1017.9
20260504233925 75 272 2.0 5.0 0.00 0.00 0.00 76 1018.0
20260504233816 75 246 2.0 5.0 0.00 0.00 0.00 77 1018.0
20260504233707 76 176 2.0 5.0 0.00 0.00 0.00 77 1018.0
20260504233449 75 193 2.0 4.0 0.00 0.00 0.00 78 1018.0
20260504233346 75 240 2.0 4.0 0.00 0.00 0.00 78 1018.1
20260504233254 75 240 2.0 4.0 0.00 0.00 0.00 78 1018.1
20260504233145 75 249 2.0 4.0 0.00 0.00 0.00 77 1018.0
20260504233041 74 263 2.0 4.0 0.00 0.00 0.00 80 1018.1
20260504232940 74 223 2.0 4.0 0.00 0.00 0.00 77 1018.1
20260504232842 74 262 2.0 4.0 0.00 0.00 0.00 78 1018.0
20260504232740 74 185 2.0 4.0 0.00 0.00 0.00 79 1017.9
20260504232639 74 185 2.0 4.0 0.00 0.00 0.00 80 1018.1
20260504232536 74 271 2.0 4.0 0.00 0.00 0.00 79 1017.9
20260504232422 74 251 2.0 4.0 0.00 0.00 0.00 78 1018.0
20260504232314 74 304 2.0 4.0 0.00 0.00 0.00 78 1017.9
20260504232204 74 238 2.0 3.0 0.00 0.00 0.00 80 1018.0
20260504231945 73 309 2.0 3.0 0.00 0.00 0.00 82 1018.0
20260504231837 73 309 2.0 3.0 0.00 0.00 0.00 80 1018.1
20260504231733 73 317 2.0 3.0 0.00 0.00 0.00 82 1018.1
20260504231620 73 337 2.0 3.0 0.00 0.00 0.00 84 1018.2
20260504231517 73 337 2.0 3.0 0.00 0.00 0.00 84 1018.2
20260504231415 73 5 1.0 3.0 0.00 0.00 0.00 85 1018.1
20260504231316 73 336 1.0 3.0 0.00 0.00 0.00 84 1018.2
20260504231213 73 346 1.0 3.0 0.00 0.00 0.00 85 1018.2
20260504231110 73 329 1.0 2.0 0.00 0.00 0.00 84 1018.1
20260504231000 73 329 1.0 2.0 0.00 0.00 0.00 84 1018.1
20260504230902 73 5 1.0 2.0 0.00 0.00 0.00 85 1018.1
20260504230802 73 5 1.0 2.0 0.00 0.00 0.00 85 1018.1
20260504230655 73 38 1.0 2.0 0.00 0.00 0.00 85 1018.2
20260504230441 72 63 1.0 2.0 0.00 0.00 0.00 86 1018.2
20260504230339 72 63 1.0 2.0 0.00 0.00 0.00 84 1018.3
20260504230236 72 63 1.0 2.0 0.00 0.00 0.00 85 1018.3
20260504230129 72 63 0.0 2.0 0.00 0.00 0.00 86 1018.4
20260504230017 71 63 0.0 2.0 0.00 0.00 0.00 87 1018.3
20260504225909 71 63 0.0 2.0 0.00 0.00 0.00 86 1018.4
20260504225759 71 288 0.0 2.0 0.00 0.00 0.00 86 1018.4
20260504225653 71 288 0.0 2.0 0.00 0.00 0.00 87 1018.3
20260504225553 71 288 0.0 2.0 0.00 0.00 0.00 88 1018.3
20260504225444 71 31 0.0 0.0 0.00 0.00 0.00 87 1018.4
20260504225342 71 31 0.0 0.0 0.00 0.00 0.00 88 1018.4
20260504225242 70 31 0.0 0.0 0.00 0.00 0.00 87 1018.4
20260504225145 70 31 0.0 0.0 0.00 0.00 0.00 88 1018.3
20260504225037 70 31 0.0 0.0 0.00 0.00 0.00 88 1018.4
20260504224936 70 31 0.0 0.0 0.00 0.00 0.00 88 1018.4
20260504224834 70 31 0.0 0.0 0.00 0.00 0.00 88 1018.3
20260504224725 70 31 0.0 0.0 0.00 0.00 0.00 89 1018.3
20260504224616 70 31 0.0 0.0 0.00 0.00 0.00 89 1018.3
20260504224505 69 31 0.0 0.0 0.00 0.00 0.00 89 1018.3
20260504224355 69 31 0.0 0.0 0.00 0.00 0.00 88 1018.3
20260504224252 69 31 0.0 0.0 0.00 0.00 0.00 88 1018.3
20260504224148 69 31 0.0 0.0 0.00 0.00 0.00 89 1018.2
20260504224049 70 31 0.0 0.0 0.00 0.00 0.00 89 1018.3
20260504223949 69 31 0.0 0.0 0.00 0.00 0.00 89 1018.3
20260504223846 69 31 0.0 1.0 0.00 0.00 0.00 89 1018.3
20260504223741 69 31 0.0 1.0 0.00 0.00 0.00 89 1018.2
20260504223656 69 31 0.0 1.0 0.00 0.00 0.00 89 1018.3
20260504223626 69 31 0.0 1.0 0.00 0.00 0.00 90 1018.2
20260504223439 69 31 0.0 1.0 0.00 0.00 0.00 90 1018.2
20260504223335 69 31 0.0 1.0 0.00 0.00 0.00 89 1018.2
20260504223234 69 31 0.0 2.0 0.00 0.00 0.00 88 1018.3
20260504223132 69 31 0.0 2.0 0.00 0.00 0.00 90 1018.2
20260504223028 69 31 0.0 2.0 0.00 0.00 0.00 90 1018.1
20260504222929 69 31 0.0 2.0 0.00 0.00 0.00 91 1018.3
20260504222819 68 31 0.0 2.0 0.00 0.00 0.00 90 1018.3
20260504222709 69 31 0.0 2.0 0.00 0.00 0.00 91 1018.2
20260504222606 68 31 0.0 2.0 0.00 0.00 0.00 91 1018.2
20260504222505 68 31 0.0 2.0 0.00 0.00 0.00 91 1018.3
20260504222402 68 31 0.0 2.0 0.00 0.00 0.00 92 1018.3
20260504222301 68 31 0.0 2.0 0.00 0.00 0.00 92 1018.2
20260504222201 68 306 0.0 0.0 0.00 0.00 0.00 91 1018.3
20260504222131 68 306 0.0 0.0 0.00 0.00 0.00 91 1018.2
20260504221954 68 306 0.0 0.0 0.00 0.00 0.00 92 1018.3
20260504221854 68 306 0.0 0.0 0.00 0.00 0.00 92 1018.3
20260504221753 68 306 0.0 0.0 0.00 0.00 0.00 92 1018.4
20260504221650 68 306 0.0 0.0 0.00 0.00 0.00 93 1018.2
20260504221446 67 306 0.0 0.0 0.00 0.00 0.00 92 1018.3
20260504221344 67 306 0.0 0.0 0.00 0.00 0.00 92 1018.3
20260504221241 67 306 0.0 0.0 0.00 0.00 0.00 93 1018.3
20260504221137 67 306 0.0 0.0 0.00 0.00 0.00 93 1018.2
20260504221036 66 306 0.0 0.0 0.00 0.00 0.00 92 1018.2
20260504220938 66 306 0.0 0.0 0.00 0.00 0.00 92 1018.2
20260504220828 66 306 0.0 0.0 0.00 0.00 0.00 93 1018.2
20260504220726 66 306 0.0 0.0 0.00 0.00 0.00 93 1018.2
20260504220624 66 306 0.0 0.0 0.00 0.00 0.00 93 1018.1
20260504220404 67 306 0.0 0.0 0.00 0.00 0.00 94 1018.2
20260504220254 66 306 0.0 0.0 0.00 0.00 0.00 93 1018.1
20260504220144 66 306 0.0 0.0 0.00 0.00 0.00 93 1018.2
20260504220034 66 306 0.0 0.0 0.00 0.00 0.00 94 1018.2
20260504215924 66 306 0.0 0.0 0.00 0.00 0.00 94 1018.1
20260504215818 66 306 0.0 0.0 0.00 0.00 0.00 94 1018.1
20260504215754 65 306 0.0 0.0 0.00 0.00 0.00 94 1018.0
20260504215600 65 306 0.0 0.0 0.00 0.00 0.00 94 1018.0
20260504215507 65 306 0.0 0.0 0.00 0.00 0.00 94 1018.1
20260504215400 65 306 0.0 0.0 0.00 0.00 0.00 94 1018.1
20260504215300 65 306 0.0 0.0 0.00 0.00 0.00 94 1018.1
20260504215151 65 306 0.0 0.0 0.00 0.00 0.00 94 1018.1
20260504215104 65 306 0.0 0.0 0.00 0.00 0.00 94 1018.1
20260504214934 65 306 0.0 0.0 0.00 0.00 0.00 94 1018.1
20260504214827 64 306 0.0 0.0 0.00 0.00 0.00 94 1018.1
20260504214726 64 306 0.0 0.0 0.00 0.00 0.00 94 1018.1
20260504214625 64 306 0.0 0.0 0.00 0.00 0.00 94 1018.0
20260504214516 64 306 0.0 0.0 0.00 0.00 0.00 94 1018.0
20260504214421 64 306 0.0 0.0 0.00 0.00 0.00 94 1018.0
20260504214319 64 306 0.0 0.0 0.00 0.00 0.00 94 1017.9
20260504214208 64 306 0.0 0.0 0.00 0.00 0.00 94 1017.9
20260504214103 64 306 0.0 0.0 0.00 0.00 0.00 94 1018.0
20260504213949 64 306 0.0 0.0 0.00 0.00 0.00 94 1018.0
20260504213844 64 306 0.0 0.0 0.00 0.00 0.00 94 1017.9
20260504213747 64 306 0.0 0.0 0.00 0.00 0.00 94 1018.0
20260504213636 64 306 0.0 0.0 0.00 0.00 0.00 94 1018.1
20260504213534 64 306 0.0 0.0 0.00 0.00 0.00 94 1018.1
20260504213431 64 306 0.0 0.0 0.00 0.00 0.00 94 1018.1
20260504213331 64 306 0.0 0.0 0.00 0.00 0.00 94 1018.0
20260504213225 64 306 0.0 0.0 0.00 0.00 0.00 94 1018.1
20260504213108 63 306 0.0 0.0 0.00 0.00 0.00 94 1018.0
20260504213000 63 306 0.0 0.0 0.00 0.00 0.00 94 1018.1
20260504212852 63 306 0.0 0.0 0.00 0.00 0.00 93 1018.0
20260504212739 63 306 0.0 0.0 0.00 0.00 0.00 93 1018.0
20260504212629 63 306 0.0 0.0 0.00 0.00 0.00 94 1018.0
20260504212518 63 306 0.0 0.0 0.00 0.00 0.00 94 1018.0
20260504212408 63 306 0.0 0.0 0.00 0.00 0.00 94 1018.0
20260504212305 63 306 0.0 0.0 0.00 0.00 0.00 94 1018.0
20260504212209 63 306 0.0 0.0 0.00 0.00 0.00 93 1017.9
20260504212056 63 306 0.0 0.0 0.00 0.00 0.00 93 1018.1
20260504211948 63 306 0.0 0.0 0.00 0.00 0.00 93 1018.0
20260504211839 63 306 0.0 0.0 0.00 0.00 0.00 93 1018.0
20260504211727 63 306 0.0 0.0 0.00 0.00 0.00 93 1018.0
20260504211617 63 306 0.0 0.0 0.00 0.00 0.00 93 1018.0
20260504211506 63 306 0.0 0.0 0.00 0.00 0.00 93 1018.0
20260504211356 62 306 0.0 0.0 0.00 0.00 0.00 93 1018.0
20260504211247 62 306 0.0 0.0 0.00 0.00 0.00 93 1017.9
20260504211137 62 306 0.0 0.0 0.00 0.00 0.00 93 1017.9
20260504211027 62 306 0.0 0.0 0.00 0.00 0.00 93 1017.9
20260504210924 62 306 0.0 0.0 0.00 0.00 0.00 92 1017.9
20260504210825 62 306 0.0 0.0 0.00 0.00 0.00 92 1017.8
20260504210723 62 306 0.0 0.0 0.00 0.00 0.00 92 1017.9
20260504210618 62 306 0.0 0.0 0.00 0.00 0.00 92 1017.9
20260504210518 62 306 0.0 0.0 0.00 0.00 0.00 92 1017.9
20260504210408 62 306 0.0 0.0 0.00 0.00 0.00 92 1017.8
20260504210257 62 306 0.0 0.0 0.00 0.00 0.00 92 1017.8
20260504210150 62 306 0.0 0.0 0.00 0.00 0.00 92 1017.8
20260504210038 62 306 0.0 0.0 0.00 0.00 0.00 92 1017.8
20260504205930 62 306 0.0 0.0 0.00 0.00 0.00 92 1017.7
20260504205822 62 306 0.0 0.0 0.00 0.00 0.00 92 1017.8
20260504205709 62 306 0.0 0.0 0.00 0.00 0.00 92 1017.8
20260504205558 62 306 0.0 0.0 0.00 0.00 0.00 92 1017.7
20260504205449 62 306 0.0 0.0 0.00 0.00 0.00 92 1017.8
20260504205338 62 306 0.0 0.0 0.00 0.00 0.00 92 1017.8
20260504205228 62 306 0.0 0.0 0.00 0.00 0.00 92 1017.7
20260504205125 62 306 0.0 0.0 0.00 0.00 0.00 92 1017.7
20260504205026 62 306 0.0 0.0 0.00 0.00 0.00 92 1017.7
20260504204919 62 306 0.0 0.0 0.00 0.00 0.00 92 1017.8
20260504204815 62 306 0.0 0.0 0.00 0.00 0.00 92 1017.8
20260504204710 62 306 0.0 0.0 0.00 0.00 0.00 92 1017.7
20260504204610 62 306 0.0 0.0 0.00 0.00 0.00 92 1017.8
20260504204500 62 306 0.0 0.0 0.00 0.00 0.00 92 1017.7
20260504204350 62 306 0.0 0.0 0.00 0.00 0.00 92 1017.8
20260504204244 62 306 0.0 0.0 0.00 0.00 0.00 92 1017.7
20260504204133 62 306 0.0 0.0 0.00 0.00 0.00 92 1017.7
20260504204021 62 306 0.0 0.0 0.00 0.00 0.00 92 1017.7
20260504203912 62 306 0.0 0.0 0.00 0.00 0.00 91 1017.7
20260504203800 62 306 0.0 0.0 0.00 0.00 0.00 91 1017.7
20260504203658 62 306 0.0 0.0 0.00 0.00 0.00 92 1017.7
20260504203623 62 306 0.0 0.0 0.00 0.00 0.00 91 1017.8
20260504203557 62 306 0.0 0.0 0.00 0.00 0.00 92 1017.7
20260504203339 62 306 0.0 0.0 0.00 0.00 0.00 91 1017.7
20260504203231 62 306 0.0 0.0 0.00 0.00 0.00 91 1017.6
20260504203126 62 306 0.0 0.0 0.00 0.00 0.00 91 1017.6
20260504203024 62 306 0.0 0.0 0.00 0.00 0.00 91 1017.6
20260504202922 62 306 0.0 0.0 0.00 0.00 0.00 91 1017.6
20260504202819 62 306 0.0 0.0 0.00 0.00 0.00 92 1017.5
20260504202705 62 306 0.0 0.0 0.00 0.00 0.00 92 1017.5
20260504202601 62 306 0.0 0.0 0.00 0.00 0.00 92 1017.5
20260504202502 62 306 0.0 0.0 0.00 0.00 0.00 92 1017.6
20260504202354 62 306 0.0 0.0 0.00 0.00 0.00 92 1017.5
20260504202255 62 306 0.0 0.0 0.00 0.00 0.00 91 1017.6
20260504202152 62 306 0.0 0.0 0.00 0.00 0.00 91 1017.5
20260504202048 62 306 0.0 0.0 0.00 0.00 0.00 92 1017.6
20260504201838 62 306 0.0 0.0 0.00 0.00 0.00 91 1017.6
20260504201734 62 306 0.0 0.0 0.00 0.00 0.00 92 1017.5
20260504201635 62 306 0.0 0.0 0.00 0.00 0.00 91 1017.6
20260504201525 62 306 0.0 0.0 0.00 0.00 0.00 92 1017.4
20260504201415 62 306 0.0 0.0 0.00 0.00 0.00 92 1017.4
20260504201308 62 306 0.0 0.0 0.00 0.00 0.00 92 1017.4
20260504201239 62 306 0.0 0.0 0.00 0.00 0.00 92 1017.4
20260504201058 62 306 0.0 0.0 0.00 0.00 0.00 92 1017.4
20260504200958 62 306 0.0 0.0 0.00 0.00 0.00 92 1017.4
20260504200850 62 306 0.0 0.0 0.00 0.00 0.00 92 1017.4
20260504200740 62 306 0.0 0.0 0.00 0.00 0.00 92 1017.4
20260504200629 62 306 0.0 0.0 0.00 0.00 0.00 92 1017.4
20260504200548 62 306 0.0 0.0 0.00 0.00 0.00 92 1017.4
20260504200418 62 306 0.0 0.0 0.00 0.00 0.00 92 1017.4
20260504200318 62 306 0.0 0.0 0.00 0.00 0.00 92 1017.4
20260504200211 62 306 0.0 0.0 0.00 0.00 0.00 92 1017.3
20260504200104 62 306 0.0 0.0 0.00 0.00 0.00 92 1017.3
20260504200000 62 306 0.0 0.0 0.00 0.00 0.00 92 1017.4
20260504195902 62 306 0.0 0.0 0.00 0.00 0.00 92 1017.4
20260504195751 62 306 0.0 0.0 0.00 0.00 0.00 92 1017.3
20260504195640 62 306 0.0 0.0 0.00 0.00 0.00 92 1017.3
20260504195530 62 306 0.0 0.0 0.00 0.00 0.00 92 1017.3
20260504195426 62 306 0.0 0.0 0.00 0.00 0.00 92 1017.3
20260504195326 62 306 0.0 0.0 0.00 0.00 0.00 92 1017.2
20260504195224 62 306 0.0 0.0 0.00 0.00 0.00 92 1017.3
20260504195120 62 306 0.0 0.0 0.00 0.00 0.00 92 1017.3
20260504195016 62 306 0.0 0.0 0.00 0.00 0.00 92 1017.2
20260504194916 62 306 0.0 0.0 0.00 0.00 0.00 92 1017.3
20260504194807 62 306 0.0 0.0 0.00 0.00 0.00 92 1017.2
20260504194654 62 306 0.0 0.0 0.00 0.00 0.00 92 1017.2
20260504194540 62 306 0.0 0.0 0.00 0.00 0.00 92 1017.2
20260504194429 62 306 0.0 0.0 0.00 0.00 0.00 92 1017.3
20260504194321 62 306 0.0 0.0 0.00 0.00 0.00 92 1017.2
20260504194210 62 306 0.0 0.0 0.00 0.00 0.00 92 1017.2
20260504194100 62 306 0.0 0.0 0.00 0.00 0.00 92 1017.3
20260504193951 62 306 0.0 0.0 0.00 0.00 0.00 92 1017.2
20260504193841 62 306 0.0 0.0 0.00 0.00 0.00 92 1017.2
20260504193733 62 306 0.0 0.0 0.00 0.00 0.00 92 1017.2
20260504193627 62 306 0.0 0.0 0.00 0.00 0.00 92 1017.2
20260504193525 62 306 0.0 0.0 0.00 0.00 0.00 92 1017.2
20260504193322 62 306 0.0 0.0 0.00 0.00 0.00 92 1017.3
20260504193222 62 306 0.0 0.0 0.00 0.00 0.00 92 1017.2
20260504193115 62 306 0.0 0.0 0.00 0.00 0.00 92 1017.2
20260504193002 62 306 0.0 0.0 0.00 0.00 0.00 92 1017.2
20260504192852 62 306 0.0 0.0 0.00 0.00 0.00 92 1017.2
20260504192746 62 306 0.0 0.0 0.00 0.00 0.00 91 1017.1
20260504192719 62 306 0.0 0.0 0.00 0.00 0.00 92 1017.1
20260504192700 62 306 0.0 0.0 0.00 0.00 0.00 92 1017.2
20260504192430 62 306 0.0 0.0 0.00 0.00 0.00 92 1017.2
20260504192330 62 306 0.0 0.0 0.00 0.00 0.00 91 1017.1
20260504192218 62 306 0.0 0.0 0.00 0.00 0.00 91 1017.1
20260504192111 62 306 0.0 0.0 0.00 0.00 0.00 92 1017.1
20260504192025 62 306 0.0 0.0 0.00 0.00 0.00 91 1017.1
20260504192003 62 306 0.0 0.0 0.00 0.00 0.00 91 1017.1
20260504191804 62 306 0.0 0.0 0.00 0.00 0.00 91 1017.1
20260504191657 62 306 0.0 0.0 0.00 0.00 0.00 91 1017.0
20260504191559 62 306 0.0 0.0 0.00 0.00 0.00 91 1017.0
20260504191454 63 306 0.0 0.0 0.00 0.00 0.00 91 1016.9
20260504191350 62 306 0.0 0.0 0.00 0.00 0.00 91 1016.9
20260504191251 63 306 0.0 0.0 0.00 0.00 0.00 91 1017.0
20260504191141 63 306 0.0 0.0 0.00 0.00 0.00 91 1016.9
20260504191034 63 306 0.0 0.0 0.00 0.00 0.00 91 1016.9
20260504190920 63 5 0.0 0.0 0.00 0.00 0.00 91 1016.9
20260504190823 63 5 0.0 0.0 0.00 0.00 0.00 91 1016.9
20260504190714 63 5 0.0 0.0 0.00 0.00 0.00 91 1016.9
20260504190615 63 5 0.0 0.0 0.00 0.00 0.00 91 1016.8
20260504190508 63 5 0.0 0.0 0.00 0.00 0.00 91 1016.9
20260504190251 63 5 0.0 0.0 0.00 0.00 0.00 91 1016.8
20260504190152 63 5 0.0 0.0 0.00 0.00 0.00 91 1016.9
20260504190044 63 5 0.0 0.0 0.00 0.00 0.00 91 1016.9
20260504185934 63 5 0.0 0.0 0.00 0.00 0.00 91 1017.0
20260504185824 63 5 0.0 0.0 0.00 0.00 0.00 91 1016.9
20260504185714 63 5 0.0 1.0 0.00 0.00 0.00 91 1017.0
20260504185611 63 5 0.0 1.0 0.00 0.00 0.00 91 1017.0
20260504185509 63 5 0.0 1.0 0.00 0.00 0.00 91 1016.9
20260504185409 63 5 0.0 1.0 0.00 0.00 0.00 91 1016.9
20260504185259 63 5 0.0 1.0 0.00 0.00 0.00 91 1017.0
20260504185149 63 5 0.0 1.0 0.00 0.00 0.00 91 1016.9
20260504185039 63 5 0.0 1.0 0.00 0.00 0.00 91 1016.9
20260504184937 63 5 0.0 1.0 0.00 0.00 0.00 91 1017.0
20260504184732 63 5 0.0 1.0 0.00 0.00 0.00 91 1016.9
20260504184624 63 5 0.0 1.0 0.00 0.00 0.00 91 1016.9
20260504184520 63 5 0.0 1.0 0.00 0.00 0.00 91 1016.9
20260504184426 63 5 0.0 0.0 0.00 0.00 0.00 91 1016.9
20260504184312 63 5 0.0 0.0 0.00 0.00 0.00 91 1016.9
20260504184212 63 5 0.0 0.0 0.00 0.00 0.00 91 1016.9
20260504184112 63 5 0.0 0.0 0.00 0.00 0.00 91 1017.0
20260504184002 63 5 0.0 0.0 0.00 0.00 0.00 91 1016.9
20260504183852 63 5 0.0 0.0 0.00 0.00 0.00 91 1016.9
20260504183744 63 5 0.0 0.0 0.00 0.00 0.00 91 1016.9
20260504183638 63 5 0.0 0.0 0.00 0.00 0.00 91 1017.0
20260504183526 63 5 0.0 0.0 0.00 0.00 0.00 91 1017.0
20260504183420 63 5 0.0 0.0 0.00 0.00 0.00 91 1016.9
20260504183306 63 5 0.0 0.0 0.00 0.00 0.00 91 1016.9
20260504183204 63 5 0.0 0.0 0.00 0.00 0.00 91 1016.9
20260504183106 63 5 0.0 0.0 0.00 0.00 0.00 91 1016.9
20260504182954 63 5 0.0 0.0 0.00 0.00 0.00 91 1017.0
20260504182847 63 5 0.0 0.0 0.00 0.00 0.00 91 1016.9
20260504182740 63 5 0.0 0.0 0.00 0.00 0.00 91 1017.0
20260504182631 63 5 0.0 0.0 0.00 0.00 0.00 91 1016.9
20260504182519 63 5 0.0 0.0 0.00 0.00 0.00 91 1016.9
20260504182414 63 5 0.0 0.0 0.00 0.00 0.00 91 1016.9
20260504182300 63 5 0.0 0.0 0.00 0.00 0.00 91 1016.8
20260504182154 63 5 0.0 0.0 0.00 0.00 0.00 91 1016.7
20260504182045 63 5 0.0 0.0 0.00 0.00 0.00 91 1016.8
20260504181938 63 5 0.0 0.0 0.00 0.00 0.00 91 1016.8
20260504181719 63 5 0.0 0.0 0.00 0.00 0.00 91 1016.8
20260504181616 63 5 0.0 0.0 0.00 0.00 0.00 91 1016.8
20260504181518 63 5 0.0 0.0 0.00 0.00 0.00 91 1016.7
20260504181412 63 5 0.0 0.0 0.00 0.00 0.00 91 1016.8
20260504181258 63 5 0.0 0.0 0.00 0.00 0.00 91 1016.8
20260504181148 63 5 0.0 0.0 0.00 0.00 0.00 91 1016.7
20260504181039 63 5 0.0 0.0 0.00 0.00 0.00 91 1016.8
20260504180928 63 5 0.0 0.0 0.00 0.00 0.00 91 1016.7
20260504180826 63 5 0.0 0.0 0.00 0.00 0.00 91 1016.7
20260504180711 63 5 0.0 0.0 0.00 0.00 0.00 91 1016.6
20260504180605 63 5 0.0 0.0 0.00 0.00 0.00 91 1016.7
20260504180455 63 5 0.0 0.0 0.00 0.00 0.00 91 1016.7
20260504180355 63 5 0.0 0.0 0.00 0.00 0.00 91 1016.6
20260504180252 63 5 0.0 0.0 0.00 0.00 0.00 91 1016.7
20260504180152 63 5 0.0 0.0 0.00 0.00 0.00 91 1016.7
20260504180052 63 5 0.0 0.0 0.00 0.00 0.00 91 1016.6
20260504175950 63 5 0.0 0.0 0.00 0.00 0.00 91 1016.6
20260504175841 63 5 0.0 0.0 0.00 0.00 0.00 91 1016.5
20260504175735 63 5 0.0 0.0 0.00 0.00 0.00 91 1016.5
20260504175633 63 5 0.0 0.0 0.00 0.00 0.00 91 1016.6
20260504175533 63 5 0.0 0.0 0.00 0.00 0.00 91 1016.6
20260504175431 63 5 0.0 0.0 0.00 0.00 0.00 91 1016.7
20260504175325 63 5 0.0 0.0 0.00 0.00 0.00 91 1016.5
20260504175219 63 5 0.0 0.0 0.00 0.00 0.00 91 1016.5
20260504175116 63 5 0.0 0.0 0.00 0.00 0.00 91 1016.6
20260504175016 63 5 0.0 0.0 0.00 0.00 0.00 91 1016.6
20260504174938 63 5 0.0 0.0 0.00 0.00 0.00 91 1016.7
20260504174910 63 5 0.0 0.0 0.00 0.00 0.00 91 1016.6
20260504174702 63 5 0.0 0.0 0.00 0.00 0.00 91 1016.6
20260504174604 63 5 0.0 0.0 0.00 0.00 0.00 91 1016.6
20260504174454 63 5 0.0 0.0 0.00 0.00 0.00 91 1016.6
20260504174353 63 5 0.0 0.0 0.00 0.00 0.00 91 1016.6
20260504174253 63 5 0.0 0.0 0.00 0.00 0.00 91 1016.6
20260504174150 63 5 0.0 0.0 0.00 0.00 0.00 91 1016.6
20260504174047 63 5 0.0 0.0 0.00 0.00 0.00 91 1016.6
20260504173939 63 5 0.0 0.0 0.00 0.00 0.00 91 1016.7
20260504173858 63 5 0.0 0.0 0.00 0.00 0.00 91 1016.7
20260504173736 63 5 0.0 0.0 0.00 0.00 0.00 91 1016.6
20260504173637 63 5 0.0 0.0 0.00 0.00 0.00 91 1016.5
20260504173533 63 5 0.0 0.0 0.00 0.00 0.00 91 1016.6
20260504173431 63 5 0.0 0.0 0.00 0.00 0.00 91 1016.6
20260504173333 63 5 0.0 0.0 0.00 0.00 0.00 91 1016.6
20260504173230 63 5 0.0 0.0 0.00 0.00 0.00 91 1016.5
20260504173126 63 5 0.0 0.0 0.00 0.00 0.00 91 1016.5
20260504173028 63 5 0.0 0.0 0.00 0.01 0.00 91 1016.6
20260504172925 63 5 0.0 0.0 0.00 0.01 0.00 91 1016.6
20260504172827 63 5 0.0 0.0 0.00 0.01 0.00 91 1016.6
20260504172724 63 5 0.0 0.0 0.00 0.01 0.00 91 1016.6
20260504172622 63 5 0.0 0.0 0.00 0.01 0.00 91 1016.7
20260504172521 63 5 0.0 0.0 0.00 0.01 0.00 91 1016.6
20260504172422 63 5 0.0 0.0 0.00 0.01 0.00 91 1016.7
20260504172328 63 5 0.0 0.0 0.00 0.01 0.00 91 1016.7
20260504172209 64 5 0.0 0.0 0.00 0.01 0.00 91 1016.7
20260504172102 63 5 0.0 0.0 0.00 0.01 0.00 91 1016.7
20260504171956 64 5 0.0 0.0 0.00 0.01 0.00 91 1016.6
20260504171856 64 5 0.0 0.0 0.00 0.01 0.00 91 1016.6
20260504171759 64 5 0.0 0.0 0.00 0.01 0.00 91 1016.6
20260504171647 64 5 0.0 0.0 0.00 0.01 0.00 91 1016.6
20260504171545 64 5 0.0 0.0 0.00 0.01 0.00 91 1016.6
20260504171442 64 5 0.0 0.0 0.00 0.01 0.00 91 1016.6
20260504171342 64 5 0.0 0.0 0.00 0.01 0.00 91 1016.6
20260504171240 64 5 0.0 0.0 0.00 0.01 0.00 91 1016.6
20260504171139 64 5 0.0 0.0 0.00 0.01 0.00 91 1016.6
20260504171036 64 5 0.0 0.0 0.00 0.01 0.00 91 1016.5
20260504170935 64 5 0.0 0.0 0.00 0.01 0.00 91 1016.7
20260504170833 64 5 0.0 0.0 0.00 0.01 0.00 91 1016.5
20260504170723 64 5 0.0 0.0 0.00 0.01 0.00 91 1016.7
20260504170613 64 5 0.0 0.0 0.00 0.01 0.00 91 1016.7
20260504170505 64 5 0.0 0.0 0.00 0.01 0.00 91 1016.7
20260504170358 64 5 0.0 0.0 0.00 0.01 0.00 91 1016.7
20260504170158 64 5 0.0 0.0 0.00 0.01 0.00 91 1016.6
20260504160436 64 266 0.0 0.0 0.00 0.01 0.00 91 1017.0
20260504160324 64 266 0.0 0.0 0.00 0.01 0.00 91 1017.0
20260504160213 64 266 0.0 0.0 0.00 0.01 0.00 91 1017.1
20260504160103 64 266 0.0 0.0 0.00 0.01 0.00 91 1017.0
20260504151145 65 266 0.0 0.0 0.00 0.01 0.00 90 1017.2
20260504151035 65 266 0.0 0.0 0.00 0.01 0.00 90 1017.2
20260504150925 65 266 0.0 0.0 0.00 0.01 0.00 90 1017.3
20260504150822 65 266 0.0 0.0 0.00 0.01 0.00 90 1017.3
20260504150723 65 266 0.0 0.0 0.00 0.01 0.00 90 1017.3
20260504150612 65 266 0.0 0.0 0.00 0.01 0.00 90 1017.3
20260504150511 65 266 0.0 0.0 0.00 0.01 0.00 90 1017.3
20260504150407 65 266 0.0 0.0 0.00 0.01 0.00 90 1017.2
20260504150307 65 266 0.0 0.0 0.00 0.01 0.00 90 1017.2
20260504150157 65 266 0.0 0.0 0.00 0.01 0.00 90 1017.2
20260504141325 65 266 0.0 0.0 0.00 0.01 0.00 90 1017.6
20260504141223 65 266 0.0 0.0 0.00 0.01 0.00 90 1017.6
20260504141120 65 266 0.0 0.0 0.00 0.01 0.00 90 1017.6
20260504141020 65 266 0.0 0.0 0.00 0.01 0.00 90 1017.6
20260504140909 65 266 0.0 1.0 0.00 0.01 0.00 90 1017.6
20260504140801 65 266 0.0 1.0 0.00 0.01 0.00 90 1017.6
20260504140659 65 266 0.0 1.0 0.00 0.01 0.00 90 1017.6
20260504140557 65 266 0.0 1.0 0.00 0.01 0.00 90 1017.5
20260504140447 65 266 0.0 1.0 0.00 0.01 0.00 90 1017.6
20260504140341 65 266 0.0 1.0 0.00 0.01 0.00 90 1017.7
20260504140231 65 266 0.0 1.0 0.00 0.01 0.00 90 1017.6
20260504140118 66 266 0.0 1.0 0.00 0.01 0.00 90 1017.6
20260504130740 66 333 0.0 2.0 0.00 0.01 0.01 90 1018.1
20260504130629 66 333 0.0 2.0 0.00 0.01 0.01 90 1018.0
20260504130529 66 333 0.0 2.0 0.00 0.01 0.01 90 1018.0
20260504130427 66 333 0.0 2.0 0.00 0.01 0.01 90 1018.2
20260504130318 66 333 0.0 2.0 0.00 0.01 0.01 89 1017.9
20260504130207 66 333 0.0 2.0 0.00 0.01 0.01 89 1018.1
20260504130105 66 333 0.0 2.0 0.00 0.01 0.01 89 1018.1
20260504120223 67 155 0.0 0.0 0.00 0.01 0.01 88 1018.5
20260504120114 67 155 0.0 0.0 0.00 0.01 0.01 88 1018.5
20260504110636 68 210 0.0 0.0 0.00 0.01 0.01 86 1018.9
20260504110521 68 210 0.0 0.0 0.00 0.01 0.01 86 1018.9
20260504110410 68 210 0.0 0.0 0.00 0.01 0.01 86 1018.9
20260504110302 68 210 0.0 0.0 0.00 0.01 0.01 86 1018.9
20260504110151 68 210 0.0 0.0 0.00 0.01 0.01 86 1018.9
20260504100555 69 167 1.0 4.0 0.00 0.01 0.01 85 1018.8
20260504100453 69 167 1.0 4.0 0.00 0.01 0.01 85 1018.8
20260504100349 69 167 1.0 4.0 0.00 0.01 0.01 84 1018.8
20260504100249 69 241 1.0 3.0 0.00 0.01 0.01 84 1018.9
20260504100141 70 241 0.0 3.0 0.00 0.01 0.01 84 1018.7
20260504090135 71 170 0.0 2.0 0.00 0.01 0.01 82 1018.0
20260504081926 73 71 1.0 4.0 0.00 0.01 0.01 80 1017.5
20260504081817 73 71 1.0 4.0 0.00 0.01 0.01 80 1017.6
20260504081707 73 71 1.0 4.0 0.00 0.01 0.01 80 1017.5
20260504081557 73 71 1.0 4.0 0.00 0.01 0.01 80 1017.6
20260504081451 73 74 1.0 4.0 0.00 0.01 0.01 80 1017.5
20260504081338 73 92 1.0 5.0 0.00 0.01 0.01 80 1017.5
20260504081229 73 92 1.0 5.0 0.00 0.01 0.01 80 1017.4
20260504081128 73 103 1.0 5.0 0.00 0.01 0.01 80 1017.4
20260504081030 73 78 1.0 5.0 0.00 0.01 0.01 80 1017.4
20260504080928 73 78 1.0 5.0 0.00 0.01 0.01 80 1017.5
20260504080830 73 131 1.0 5.0 0.00 0.01 0.01 80 1017.4
20260504080718 73 100 1.0 5.0 0.00 0.01 0.01 80 1017.3
20260504080608 73 55 1.0 5.0 0.00 0.01 0.01 80 1017.4
20260504080500 73 40 1.0 5.0 0.00 0.01 0.01 80 1017.4
20260504080400 73 63 1.0 6.0 0.00 0.01 0.01 80 1017.4
20260504080302 73 41 1.0 8.0 0.00 0.01 0.01 80 1017.3
20260504080152 73 79 1.0 8.0 0.00 0.01 0.01 80 1017.3
20260504070327 75 344 2.0 6.0 0.00 0.01 0.01 75 1016.7
20260504070215 75 98 2.0 6.0 0.00 0.01 0.01 75 1016.8
20260504060222 77 5 2.0 7.0 0.00 0.01 0.01 72 1016.6
20260504060112 77 30 2.0 5.0 0.00 0.01 0.01 71 1016.5
20260504050713 79 281 2.0 5.0 0.00 0.01 0.01 67 1016.7
20260504050556 80 355 2.0 5.0 0.00 0.01 0.01 66 1016.6
20260504050456 80 355 1.0 5.0 0.00 0.01 0.01 64 1016.6
20260504050346 80 26 1.0 4.0 0.00 0.01 0.01 67 1016.7
20260504050236 80 339 2.0 3.0 0.00 0.01 0.01 67 1016.7
20260504050135 80 338 2.0 4.0 0.00 0.01 0.01 67 1016.7
20260504045926 79 42 2.0 5.0 0.00 0.01 0.01 66 1016.8
20260504045815 80 300 2.0 5.0 0.00 0.01 0.01 66 1016.7
20260504045705 79 77 2.0 5.0 0.00 0.01 0.01 67 1016.8
20260504045601 79 46 2.0 5.0 0.00 0.01 0.01 65 1016.8
20260504045446 79 98 2.0 5.0 0.00 0.01 0.01 66 1016.7
20260504045339 79 67 2.0 7.0 0.00 0.01 0.01 67 1016.8
20260504045233 79 10 2.0 7.0 0.00 0.01 0.01 65 1016.6
20260504045128 80 34 2.0 7.0 0.00 0.01 0.01 65 1016.6
20260504045013 80 339 2.0 7.0 0.00 0.01 0.01 66 1016.6
20260504044910 80 29 2.0 7.0 0.00 0.01 0.01 65 1016.6
20260504044808 80 5 3.0 11.0 0.00 0.01 0.01 64 1016.7
20260504044709 80 124 3.0 11.0 0.00 0.01 0.01 65 1016.7
20260504044607 80 348 3.0 11.0 0.00 0.01 0.01 64 1016.7
20260504044507 80 61 2.0 11.0 0.00 0.01 0.01 66 1016.6
20260504044400 80 319 2.0 11.0 0.00 0.01 0.01 64 1016.6
20260504044253 80 28 2.0 11.0 0.00 0.01 0.01 64 1016.7
20260504044151 80 342 2.0 11.0 0.00 0.01 0.01 67 1016.6
20260504043927 81 34 2.0 11.0 0.00 0.01 0.01 64 1016.6
20260504043825 81 59 1.0 6.0 0.00 0.01 0.01 64 1016.6
20260504043711 81 228 1.0 6.0 0.00 0.01 0.01 64 1016.6
20260504043604 81 213 1.0 6.0 0.00 0.01 0.01 65 1016.5
20260504043455 80 34 1.0 6.0 0.00 0.01 0.01 66 1016.6
20260504043345 80 34 1.0 6.0 0.00 0.01 0.01 66 1016.5
20260504043235 80 113 1.0 6.0 0.00 0.01 0.01 65 1016.6
20260504043129 80 38 1.0 6.0 0.00 0.01 0.01 65 1016.6
20260504043028 80 343 1.0 4.0 0.00 0.01 0.01 65 1016.6
20260504042926 80 205 2.0 4.0 0.00 0.01 0.01 64 1016.6
20260504042825 80 147 2.0 4.0 0.00 0.01 0.01 64 1016.6
20260504042723 80 266 2.0 11.0 0.00 0.01 0.01 67 1016.7
20260504042625 80 87 3.0 11.0 0.00 0.01 0.01 65 1016.7
20260504042529 80 87 3.0 11.0 0.00 0.01 0.01 64 1016.7
20260504042420 80 87 4.0 11.0 0.00 0.01 0.01 63 1016.6
20260504042327 80 351 4.0 11.0 0.00 0.01 0.01 64 1016.7
20260504042218 80 299 4.0 11.0 0.00 0.01 0.01 67 1016.7
20260504042114 79 333 4.0 11.0 0.00 0.01 0.01 65 1016.7
20260504042012 79 76 4.0 11.0 0.00 0.01 0.01 67 1016.6
20260504041908 79 87 4.0 11.0 0.00 0.01 0.01 64 1016.7
20260504041806 80 23 4.0 11.0 0.00 0.01 0.01 63 1016.7
20260504041708 80 48 3.0 11.0 0.00 0.01 0.01 64 1016.7
20260504041601 80 67 3.0 11.0 0.00 0.01 0.01 66 1016.7
20260504041504 80 83 3.0 8.0 0.00 0.01 0.01 65 1016.7
20260504041401 80 64 3.0 8.0 0.00 0.01 0.01 65 1016.6
20260504041222 80 75 3.0 8.0 0.00 0.01 0.01 64 1016.8
20260504041124 80 53 3.0 8.0 0.00 0.01 0.01 67 1016.7
20260504041020 80 78 3.0 8.0 0.00 0.01 0.01 66 1016.8
20260504040913 80 19 3.0 8.0 0.00 0.01 0.01 65 1016.6
20260504040811 80 19 3.0 8.0 0.00 0.01 0.01 66 1016.7
20260504040714 80 114 3.0 6.0 0.00 0.01 0.01 67 1016.7
20260504040607 80 63 3.0 8.0 0.00 0.01 0.01 64 1016.9
20260504040505 80 48 2.0 8.0 0.00 0.01 0.01 64 1016.7
20260504040357 81 44 2.0 8.0 0.00 0.01 0.01 65 1016.8
20260504040259 81 40 2.0 8.0 0.00 0.01 0.01 63 1016.8
20260504040159 81 119 2.0 8.0 0.00 0.01 0.01 64 1016.8
20260504040053 81 122 2.0 8.0 0.00 0.01 0.01 65 1016.8
20260504035951 81 56 2.0 8.0 0.00 0.01 0.01 65 1016.9
20260504035850 81 180 2.0 8.0 0.00 0.01 0.01 66 1016.9
20260504035741 81 61 2.0 8.0 0.00 0.01 0.01 64 1016.9
20260504035630 81 142 2.0 7.0 0.00 0.01 0.01 69 1017.0
20260504035526 80 71 2.0 7.0 0.00 0.01 0.01 67 1017.0
20260504035424 80 58 2.0 7.0 0.00 0.01 0.01 67 1017.0
20260504035327 80 47 2.0 7.0 0.00 0.01 0.01 65 1017.0
20260504035215 81 63 2.0 7.0 0.00 0.01 0.01 65 1016.9
20260504035107 81 37 2.0 6.0 0.00 0.01 0.01 66 1016.9
20260504035005 81 190 2.0 6.0 0.00 0.01 0.01 68 1016.9
20260504034901 81 82 2.0 6.0 0.00 0.01 0.01 65 1016.9
20260504034803 81 65 2.0 9.0 0.00 0.01 0.01 67 1016.9
20260504034657 81 173 2.0 9.0 0.00 0.01 0.01 66 1016.9
20260504034553 82 173 2.0 9.0 0.00 0.01 0.01 65 1017.0
20260504034454 82 92 2.0 9.0 0.00 0.01 0.01 66 1016.9
20260504034348 81 69 2.0 9.0 0.00 0.01 0.01 71 1016.9
20260504034248 81 51 2.0 9.0 0.00 0.01 0.01 67 1016.8
20260504034144 81 51 2.0 9.0 0.00 0.01 0.01 67 1016.8
20260504034042 81 79 2.0 9.0 0.00 0.01 0.01 68 1016.9
20260504033950 81 32 2.0 9.0 0.00 0.01 0.01 69 1016.8
20260504033837 81 36 2.0 9.0 0.00 0.01 0.01 68 1016.9
20260504033736 81 42 2.0 5.0 0.00 0.01 0.01 65 1016.8
20260504033637 81 26 2.0 5.0 0.00 0.01 0.01 67 1016.8
20260504033526 81 347 2.0 8.0 0.00 0.01 0.01 67 1016.9
20260504033419 81 318 2.0 8.0 0.00 0.01 0.01 67 1016.9
20260504033308 81 63 2.0 8.0 0.00 0.01 0.01 67 1016.9
20260504033158 80 349 2.0 8.0 0.00 0.01 0.01 68 1016.9
20260504033050 80 67 3.0 8.0 0.00 0.01 0.01 67 1016.9
20260504032950 80 36 3.0 8.0 0.00 0.01 0.01 68 1016.9
20260504032854 80 0 3.0 8.0 0.00 0.01 0.01 67 1017.0
20260504032747 81 342 3.0 9.0 0.00 0.01 0.01 68 1016.8
20260504032650 81 28 3.0 9.0 0.00 0.01 0.01 66 1016.9
20260504032539 81 165 3.0 9.0 0.00 0.01 0.01 67 1016.9
20260504032437 81 325 3.0 9.0 0.00 0.01 0.01 66 1016.9
20260504032334 81 31 3.0 9.0 0.00 0.01 0.01 69 1017.0
20260504032236 80 322 3.0 9.0 0.00 0.01 0.01 68 1017.0
20260504032130 80 29 3.0 9.0 0.00 0.01 0.01 68 1016.9
20260504032028 80 130 3.0 9.0 0.00 0.01 0.01 66 1016.9
20260504031929 80 348 3.0 10.0 0.00 0.01 0.01 66 1017.0
20260504031826 80 19 3.0 10.0 0.00 0.01 0.01 67 1017.0
20260504031712 80 22 3.0 10.0 0.00 0.01 0.01 67 1017.0
20260504031603 80 18 3.0 10.0 0.00 0.01 0.01 66 1017.0
20260504031451 80 335 3.0 10.0 0.00 0.01 0.01 66 1017.0
20260504031344 80 36 3.0 10.0 0.00 0.01 0.01 66 1017.1
20260504031240 80 338 3.0 10.0 0.00 0.01 0.01 67 1017.0
20260504031140 80 330 2.0 10.0 0.00 0.01 0.01 64 1017.0
20260504031029 81 17 2.0 5.0 0.00 0.01 0.01 65 1017.0
20260504030928 80 30 2.0 7.0 0.00 0.01 0.01 67 1017.1
20260504030818 81 323 2.0 7.0 0.00 0.01 0.01 64 1017.1
20260504030714 81 0 2.0 7.0 0.00 0.01 0.01 65 1017.1
20260504030613 80 58 3.0 8.0 0.00 0.01 0.01 66 1017.0
20260504030504 80 347 3.0 8.0 0.00 0.01 0.01 65 1017.1
20260504030353 80 43 3.0 8.0 0.00 0.01 0.01 67 1017.1
20260504030251 80 355 3.0 8.0 0.00 0.01 0.01 65 1017.1
20260504030148 80 347 3.0 8.0 0.00 0.01 0.01 64 1017.2
20260504030050 81 11 2.0 8.0 0.00 0.01 0.01 65 1017.2
20260504025937 81 278 2.0 8.0 0.00 0.01 0.01 65 1017.1
20260504025827 81 5 2.0 8.0 0.00 0.01 0.01 64 1017.2
20260504025726 81 59 2.0 8.0 0.00 0.01 0.01 64 1017.2
20260504025626 81 24 1.0 8.0 0.00 0.01 0.01 65 1017.2
20260504025515 81 122 1.0 8.0 0.00 0.01 0.01 69 1017.2
20260504025405 80 85 1.0 8.0 0.00 0.01 0.01 67 1017.3
20260504025255 80 153 2.0 8.0 0.00 0.01 0.01 69 1017.2
20260504025206 79 111 2.0 8.0 0.00 0.01 0.01 69 1017.3
20260504025051 79 34 2.0 8.0 0.00 0.01 0.01 70 1017.4
20260504024949 78 335 2.0 8.0 0.00 0.01 0.01 71 1017.4
20260504024839 78 338 2.0 8.0 0.00 0.01 0.01 69 1017.5
20260504024732 78 115 2.0 8.0 0.00 0.01 0.01 71 1017.5
20260504024632 78 44 2.0 9.0 0.00 0.01 0.01 70 1017.5
20260504024533 78 44 2.0 9.0 0.00 0.01 0.01 68 1017.5
20260504024425 79 46 3.0 9.0 0.00 0.01 0.01 68 1017.5
20260504024325 79 77 3.0 9.0 0.00 0.01 0.01 67 1017.4
20260504024227 80 55 2.0 9.0 0.00 0.01 0.01 67 1017.5
20260504024125 80 69 2.0 9.0 0.00 0.01 0.01 65 1017.4
20260504024032 80 5 3.0 9.0 0.00 0.01 0.01 66 1017.5
20260504023805 81 101 2.0 9.0 0.00 0.01 0.01 65 1017.5
20260504023656 81 128 2.0 8.0 0.00 0.01 0.01 65 1017.5
20260504023555 81 333 2.0 8.0 0.00 0.01 0.01 63 1017.6
20260504023457 82 61 2.0 8.0 0.00 0.01 0.01 63 1017.6
20260504023349 82 175 2.0 8.0 0.00 0.01 0.01 64 1017.5
20260504023251 81 76 2.0 8.0 0.00 0.01 0.01 63 1017.5
20260504023151 81 32 2.0 8.0 0.00 0.01 0.01 63 1017.5
20260504023041 82 193 2.0 7.0 0.00 0.01 0.01 61 1017.6
20260504022931 81 5 2.0 7.0 0.00 0.01 0.01 64 1017.6
20260504022822 81 5 3.0 7.0 0.00 0.01 0.01 66 1017.6
20260504022714 81 34 3.0 7.0 0.00 0.01 0.01 64 1017.6
20260504022614 81 87 2.0 7.0 0.00 0.01 0.01 67 1017.6
20260504022515 81 61 3.0 7.0 0.00 0.01 0.01 66 1017.5
20260504022413 81 75 3.0 7.0 0.00 0.01 0.01 65 1017.5
20260504022316 81 101 3.0 6.0 0.00 0.01 0.01 64 1017.6
20260504022203 80 167 3.0 8.0 0.00 0.01 0.01 67 1017.6
20260504022057 80 22 3.0 8.0 0.00 0.01 0.01 63 1017.6
20260504021944 80 37 3.0 8.0 0.00 0.01 0.01 62 1017.6
20260504021833 80 0 3.0 8.0 0.00 0.01 0.01 66 1017.6
20260504021724 80 342 3.0 8.0 0.00 0.01 0.01 66 1017.7
20260504021613 80 351 3.0 8.0 0.00 0.01 0.01 67 1017.8
20260504021505 80 15 3.0 8.0 0.00 0.01 0.01 65 1017.7
20260504021354 80 61 3.0 8.0 0.00 0.01 0.01 67 1017.8
20260504021244 80 334 3.0 8.0 0.00 0.01 0.01 66 1017.8
20260504021134 80 348 3.0 8.0 0.00 0.01 0.01 66 1017.8
20260504021030 80 27 3.0 8.0 0.00 0.01 0.01 65 1017.7
20260504020925 80 51 3.0 8.0 0.00 0.01 0.01 66 1017.8
20260504020827 80 355 3.0 8.0 0.00 0.01 0.01 65 1017.9
20260504020726 80 46 2.0 8.0 0.00 0.01 0.01 65 1017.8
20260504020627 81 28 2.0 8.0 0.00 0.01 0.01 67 1017.9
20260504020524 80 29 3.0 8.0 0.00 0.01 0.01 66 1017.8
20260504020406 80 5 3.0 8.0 0.00 0.01 0.01 66 1017.9
20260504020258 80 43 2.0 8.0 0.00 0.01 0.01 67 1017.8
20260504020158 80 5 3.0 7.0 0.00 0.01 0.01 66 1017.9
20260504020100 80 340 3.0 7.0 0.00 0.01 0.01 65 1017.8
20260504015955 80 67 3.0 7.0 0.00 0.01 0.01 65 1017.9
20260504015839 81 343 3.0 7.0 0.00 0.01 0.01 66 1018.0
20260504015729 81 68 3.0 7.0 0.00 0.01 0.01 65 1017.9
20260504015628 81 63 3.0 7.0 0.00 0.01 0.01 64 1017.9
20260504015524 81 180 3.0 7.0 0.00 0.01 0.01 66 1017.9
20260504015424 81 194 3.0 11.0 0.00 0.01 0.01 65 1018.1
20260504015314 80 48 3.0 11.0 0.00 0.01 0.01 65 1018.1
20260504015158 80 68 3.0 11.0 0.00 0.01 0.01 64 1018.1
20260504015048 80 51 3.0 11.0 0.00 0.01 0.01 66 1018.2
20260504014943 80 121 3.0 11.0 0.00 0.01 0.01 64 1018.1
20260504014827 80 86 3.0 11.0 0.00 0.01 0.01 66 1018.2